Weather History for Springfield, MO

Change the Weather History Date:

Friday, December 6, 2013

  Actual Average Record
Temperature  
Mean Temperature 15 °F 37 °F  
Max Temperature 20 °F 47 °F 72 °F (1939)
Min Temperature 9 °F 27 °F -1 °F (1950)
Degree Days  
Heating Degree Days 50 28  
Month to date heating degree days 155 162  
Since 1 July heating degree days 1092 1041  
Cooling Degree Days 0 0  
Month to date cooling degree days 0 0  
Year to date cooling degree days 1417 1389  
Moisture  
Dew Point 11 °F    
Average Humidity 70    
Maximum Humidity 84    
Minimum Humidity 56    
Precipitation  
Precipitation 0.11 in 0.12 in 1.66 in (1892)
Month to date precipitation 0.32 0.70  
Year to date precipitation 49.60 43.23  
Snow  
Snow 3.20 in - - ()
Month to date snowfall 7.2  
Since 1 July snowfall 7.2  
Snow Depth 4.00 in    
Sea Level Pressure  
Sea Level Pressure 30.36 in    
Wind  
Wind Speed 12 mph (North)    
Max Wind Speed 22 mph    
Max Gust Speed 25 mph    
Visibility 4 miles    
Events Fog , Snow    
T = Trace of Precipitation, MM = Missing Value Source: NWS Daily Summary

Daily Weather History Graph

Daily Weather History Graph

Search for Another Location

Airport:

Trip Planner

Search our weather history database for the weather conditions in past years. The results will help you decide how hot, cold, wet, or windy it might be!

Date:

Astronomy

Dec. 06, 2013 Rise Set
Actual Time 7:13 AM CST 4:55 PM CST
Civil Twilight 6:44 AM CST 5:24 PM CST
Nautical Twilight 6:12 AM CST 5:57 PM CST
Astronomical Twilight 5:40 AM CST 6:28 PM CST
Moon 10:22 AM CST (12/6) 9:24 PM CST (12/6)
Length of Visible Light 10h 40m
Length of Day
9h 42m
Waxing Crescent, 19% of the Moon is Illuminated
Dec 6
Waxing Crescent
Dec 9
First Quarter
Dec 17
Full
Dec 25
Last Quarter
Jan 1
New

Hourly Weather History & Observations

Time (CST) Temp. Windchill Dew Point Humidity Pressure Visibility Wind Dir Wind Speed Gust Speed Precip Events Conditions
12:52 AM 19.0 °F 9.0 °F 12.9 °F 77% 30.30 in 10.0 mi North 8.1 mph - 0.00 in   Overcast
1:52 AM 19.0 °F 8.2 °F 15.1 °F 85% 30.30 in 4.0 mi North 9.2 mph - 0.00 in Snow Light Snow
2:43 AM 19.0 °F 6.8 °F 14.0 °F 81% 30.24 in 3.0 mi North 11.5 mph - 0.00 in Snow Light Snow
2:52 AM 19.0 °F 7.5 °F 14.0 °F 81% 30.29 in 4.0 mi NNE 10.4 mph - 0.00 in Snow Light Snow
3:52 AM 19.0 °F 6.8 °F 12.9 °F 77% 30.31 in 3.0 mi North 11.5 mph - 0.00 in Snow Light Snow
4:11 AM 18.0 °F 5.4 °F 12.9 °F 81% 30.24 in 2.0 mi North 11.5 mph - 0.00 in Snow Light Snow
4:27 AM 18.0 °F 4.2 °F 12.9 °F 81% 30.23 in 1.8 mi North 13.8 mph - 0.00 in Snow Light Snow
4:34 AM 18.0 °F 4.8 °F 14.0 °F 84% 30.24 in 2.5 mi North 12.7 mph - 0.00 in Snow Light Snow
4:50 AM 17.6 °F 3.7 °F 14.0 °F 86% 30.24 in 1.5 mi North 13.8 mph - 0.00 in Snow Light Snow
4:52 AM 18.0 °F 4.2 °F 14.0 °F 84% 30.30 in 1.8 mi North 13.8 mph - 0.00 in Snow Light Snow
5:03 AM 18.0 °F 4.2 °F 14.0 °F 84% 30.25 in 2.5 mi North 13.8 mph - 0.00 in Snow Light Snow
5:13 AM 18.0 °F 3.6 °F 14.0 °F 84% 30.25 in 3.0 mi North 15.0 mph - 0.00 in Snow Light Snow
5:52 AM 18.0 °F 3.6 °F 12.9 °F 81% 30.32 in 4.0 mi North 15.0 mph - 0.00 in Snow Light Snow
6:26 AM 18.0 °F 3.6 °F 12.9 °F 81% 30.26 in 1.8 mi North 15.0 mph - 0.00 in Snow Light Snow
6:33 AM 17.1 °F 1.0 °F 12.9 °F 84% 30.26 in 1.5 mi North 18.4 mph - 0.00 in Snow Light Snow
6:52 AM 17.1 °F 3.6 °F 12.9 °F 84% 30.34 in 1.8 mi North 12.7 mph - 0.01 in Snow Light Snow
7:19 AM 17.1 °F 3.6 °F 12.9 °F 84% 30.29 in 1.2 mi North 12.7 mph - 0.00 in Snow Light Snow
7:31 AM 17.1 °F 3.6 °F 12.9 °F 84% 30.29 in 1.8 mi North 12.7 mph - 0.00 in Snow Light Snow
7:52 AM 17.1 °F 2.5 °F 12.9 °F 84% 30.35 in 1.8 mi North 15.0 mph - 0.00 in Snow Light Snow
8:00 AM 17.1 °F 2.0 °F 12.9 °F 84% 30.29 in 2.5 mi North 16.1 mph - 0.00 in Snow Light Snow
8:10 AM 17.1 °F 3.0 °F 12.9 °F 84% 30.29 in 1.0 mi North 13.8 mph - 0.01 in Snow Light Snow
8:22 AM 17.1 °F 4.3 °F 12.9 °F 84% 30.31 in 0.8 mi North 11.5 mph - 0.01 in Snow Light Snow
8:42 AM 17.1 °F 2.0 °F 12.9 °F 84% 30.30 in 0.8 mi North 16.1 mph - 0.01 in Snow Light Snow
8:52 AM 17.1 °F 3.6 °F 12.9 °F 84% 30.36 in 0.5 mi North 12.7 mph - 0.02 in Fog , Snow Snow
9:52 AM 17.1 °F 2.5 °F 12.9 °F 84% 30.38 in 0.8 mi North 15.0 mph - 0.02 in Snow Light Snow
10:39 AM 17.1 °F 1.5 °F 12.9 °F 84% 30.33 in 0.8 mi North 17.3 mph - 0.02 in Snow Light Snow
10:52 AM 17.1 °F 3.0 °F 12.9 °F 84% 30.40 in 0.8 mi North 13.8 mph - 0.02 in Snow Light Snow
11:12 AM 17.1 °F 2.0 °F 12.9 °F 84% 30.36 in 1.0 mi North 16.1 mph - 0.00 in Snow Light Snow
11:47 AM 17.6 °F 4.3 °F 12.2 °F 79% 30.35 in 0.8 mi North 12.7 mph - 0.01 in Snow Light Snow
11:52 AM 17.1 °F 5.8 °F 12.9 °F 84% 30.41 in 0.8 mi North 9.2 mph - 0.02 in Snow Light Snow
12:05 PM 17.1 °F 3.0 °F 12.9 °F 84% 30.35 in 0.5 mi North 13.8 mph - 0.00 in Fog , Snow Snow
12:23 PM 17.1 °F 2.5 °F 12.0 °F 81% 30.36 in 1.0 mi North 15.0 mph - 0.00 in Snow Light Snow
12:39 PM 17.1 °F 1.0 °F 12.0 °F 81% 30.33 in 2.0 mi North 18.4 mph - 0.00 in Snow Light Snow
12:52 PM 17.1 °F 1.0 °F 12.0 °F 81% 30.40 in 3.0 mi North 18.4 mph - 0.00 in Snow Light Snow
1:15 PM 18.0 °F 2.2 °F 12.0 °F 78% 30.34 in 5.0 mi North 18.4 mph - 0.04 in Snow Light Snow
1:38 PM 18.0 °F 3.6 °F 10.9 °F 74% 30.33 in 10.0 mi North 15.0 mph 23.0 mph 0.04 in   Overcast
1:52 PM 19.0 °F 5.0 °F 12.0 °F 74% 30.40 in 10.0 mi North 15.0 mph - 0.04 in   Overcast
2:52 PM 18.0 °F 3.1 °F 10.9 °F 74% 30.40 in 9.0 mi North 16.1 mph - N/A   Overcast
3:07 PM 19.0 °F 4.5 °F 10.9 °F 71% 30.35 in 10.0 mi North 16.1 mph - N/A   Overcast
3:52 PM 18.0 °F 6.1 °F 9.0 °F 68% 30.42 in 10.0 mi North 10.4 mph - N/A   Overcast
4:52 PM 18.0 °F 4.8 °F 8.1 °F 65% 30.46 in 10.0 mi North 12.7 mph - N/A   Overcast
5:52 PM 17.1 °F 3.6 °F 7.0 °F 65% 30.49 in 10.0 mi North 12.7 mph - N/A   Overcast
6:52 PM 17.1 °F 4.3 °F 6.1 °F 62% 30.51 in 10.0 mi North 11.5 mph - N/A   Overcast
7:52 PM 17.1 °F 4.3 °F 5.0 °F 59% 30.53 in 10.0 mi North 11.5 mph - N/A   Overcast
8:52 PM 17.1 °F 5.0 °F 5.0 °F 59% 30.56 in 10.0 mi North 10.4 mph - N/A   Overcast
9:52 PM 15.1 °F 2.5 °F 3.9 °F 61% 30.59 in 10.0 mi North 10.4 mph - N/A   Overcast
10:52 PM 12.0 °F -1.3 °F 1.9 °F 64% 30.60 in 10.0 mi North 10.4 mph - N/A   Clear
11:52 PM 9.0 °F -3.2 °F 1.0 °F 70% 30.61 in 10.0 mi North 8.1 mph - N/A   Clear